{"data":{"norad_id":43913,"epoch":"2026-09-20T04:28:25.717728Z","epoch_age_seconds":85313,"freshness":"FRESH","line1":"1 43913U 18112E   26263.18640877 -.00000077  00000+0  33033-4 0  9993","line2":"2 43913  50.0057 123.4515 0005135 342.3522  17.7214 14.29041975402746","mean_motion":14.29041975,"eccentricity":0.0005135,"inclination_deg":50.0057,"raan_deg":123.4515,"arg_perigee_deg":342.3522,"mean_anomaly_deg":17.7214,"bstar":3.3033e-5,"rev_number":40274,"period_min":100.76680917648,"perigee_km":791.25153278923,"apogee_km":798.61827763589,"semimajor_km":7173.0719052126,"source":"CELESTRAK","updated_at":"2026-09-20T09:00:14.418536Z"}}